FW6525 Weather Reports


time (UTC)temp
F
wind
direction
speed
knots
gust
knots
rain 1hr
in
rain 24hr
in
rain mn
in
humidity
%
barometer
mb
20260506190355 67 24 0.9 1.7 0.00 0.00 0.00 62 1002.0
20260506185854 67 236 0.9 1.7 0.00 0.00 0.00 62 1002.1
20260506185355 68 196 0.0 1.7 0.00 0.00 0.00 61 1002.1
20260506184855 68 252 0.0 2.6 0.00 0.00 0.00 60 1002.0
20260506184355 68 299 0.0 2.6 0.00 0.00 0.00 60 1001.9
20260506183855 68 232 0.0 0.9 0.00 0.00 0.00 61 1002.2
20260506183357 68 218 0.0 0.9 0.00 0.00 0.00 61 1001.8
20260506182855 69 233 0.0 1.7 0.00 0.00 0.00 60 1001.6
20260506182357 69 262 0.0 1.7 0.00 0.00 0.00 60 1001.7
20260506181932 69 249 0.0 1.7 0.00 0.00 0.00 60 1001.8
20260506181343 69 199 0.9 1.7 0.00 0.00 0.00 60 1001.5
20260506180843 69 200 1.7 2.6 0.00 0.00 0.00 61 1001.7
20260506180331 69 182 0.9 2.6 0.00 0.00 0.00 61 1001.6
20260506175830 69 237 0.0 0.9 0.00 0.00 0.00 63 1001.6
20260506175331 70 223 0.0 0.9 0.00 0.00 0.00 62 1001.6
20260506174830 70 244 0.0 0.9 0.00 0.00 0.00 60 1001.7
20260506174332 71 237 0.0 0.9 0.00 0.00 0.00 59 1001.7
20260506173332 71 170 0.0 1.7 0.00 0.00 0.00 59 1001.5
20260506172830 71 170 0.9 1.7 0.00 0.00 0.00 59 1001.5
20260506172331 72 167 1.7 1.7 0.00 0.00 0.00 59 1001.5
20260506171831 73 243 0.0 0.9 0.00 0.00 0.00 55 1001.5
20260506171331 74 276 0.9 0.9 0.00 0.00 0.00 56 1001.5
20260506170826 73 262 0.0 0.9 0.00 0.00 0.00 54 1001.5
20260506170318 73 245 0.0 0.9 0.00 0.00 0.00 55 1001.8
20260506165819 73 276 0.9 0.9 0.00 0.00 0.00 55 1001.5
20260506165318 72 252 0.0 1.7 0.00 0.00 0.00 56 1001.5
20260506164819 72 270 0.9 2.6 0.00 0.00 0.00 55 1001.7
20260506164319 72 260 0.0 3.5 0.00 0.00 0.00 55 1001.6
20260506163820 72 258 1.7 3.5 0.00 0.00 0.00 54 1001.7
20260506163319 72 243 0.9 3.5 0.00 0.00 0.00 54 1001.7
20260506162820 72 302 0.9 3.5 0.00 0.00 0.00 55 1001.7
20260506162318 72 253 0.0 3.5 0.00 0.00 0.00 55 1001.7
20260506160819 73 310 0.9 5.2 0.00 0.00 0.00 52 1001.8
20260506155819 74 271 0.9 6.1 0.00 0.00 0.00 51 1002.0
20260506155320 74 283 1.7 6.1 0.00 0.00 0.00 51 1002.0
20260506154819 74 294 0.9 6.1 0.00 0.00 0.00 51 1001.9
20260506154318 74 261 1.7 5.2 0.00 0.00 0.00 49 1002.1
20260506153329 74 265 3.5 6.1 0.00 0.00 0.00 47 1002.1
20260506152807 74 303 2.6 7.8 0.00 0.00 0.00 47 1002.2
20260506152308 74 337 2.6 7.8 0.00 0.00 0.00 46 1002.5
20260506151803 74 262 4.3 6.1 0.00 0.00 0.00 45 1002.2
20260506151256 76 328 0.9 6.1 0.00 0.00 0.00 45 1002.7
20260506150756 76 244 2.6 6.1 0.00 0.00 0.00 45 1002.6
20260506150304 76 263 1.7 6.1 0.00 0.00 0.00 46 1002.3
20260506145255 76 265 0.9 11.3 0.00 0.00 0.00 47 1002.5
20260506144756 76 233 5.2 11.3 0.00 0.00 0.00 46 1002.8
20260506144254 76 247 3.5 9.6 0.00 0.00 0.00 45 1002.8
20260506143755 75 274 3.5 9.6 0.00 0.00 0.00 45 1002.7
20260506143254 76 273 2.6 8.7 0.00 0.00 0.00 46 1002.7
20260506142755 76 271 4.3 8.7 0.00 0.00 0.00 45 1002.7
20260506142254 75 254 6.1 7.8 0.00 0.00 0.00 45 1002.9
20260506140757 76 258 0.9 9.6 0.00 0.00 0.00 47 1002.6
20260506135757 75 258 2.6 8.7 0.00 0.00 0.00 51 1002.9
20260506135256 77 203 1.7 7.8 0.00 0.00 0.00 49 1002.8
20260506134756 77 331 4.3 7.8 0.00 0.00 0.00 48 1002.8
20260506134256 76 282 4.3 8.7 0.00 0.00 0.00 49 1002.9
20260506133757 76 255 0.9 8.7 0.00 0.00 0.00 50 1002.8
20260506132255 77 319 4.3 5.2 0.00 0.00 0.00 48 1003.0
20260506131757 77 255 3.5 6.1 0.00 0.00 0.00 49 1002.9
20260506131256 75 221 1.7 7.0 0.00 0.00 0.00 50 1002.8
20260506130255 76 298 5.2 7.0 0.00 0.00 0.00 52 1003.3
20260506125757 74 351 4.3 7.0 0.00 0.00 0.00 52 1003.2
20260506125256 75 230 2.6 7.8 0.00 0.00 0.00 52 1003.3
20260506124757 76 272 1.7 7.8 0.00 0.00 0.00 51 1003.3
20260506124254 75 252 4.3 8.7 0.00 0.00 0.00 52 1003.4
20260506123756 75 271 1.7 8.7 0.00 0.00 0.00 52 1003.5
20260506123254 74 319 3.5 8.7 0.00 0.00 0.00 52 1003.6
20260506122755 74 303 3.5 8.7 0.00 0.00 0.00 53 1003.6
20260506121755 76 325 3.5 8.7 0.00 0.00 0.00 52 1003.6
20260506121255 74 234 1.7 9.6 0.00 0.00 0.00 54 1003.3
20260506120755 76 262 7.8 12.2 0.00 0.00 0.00 53 1003.6
20260506120253 74 319 5.2 12.2 0.00 0.00 0.00 53 1003.6
20260506115754 74 292 3.5 13.9 0.00 0.00 0.00 54 1003.5
20260506115253 75 329 8.7 13.9 0.00 0.00 0.00 53 1003.5
20260506114754 75 187 0.9 8.7 0.00 0.00 0.00 53 1003.4
20260506114253 74 35 0.9 11.3 0.00 0.00 0.00 54 1003.7
20260506113754 74 244 2.6 11.3 0.00 0.00 0.00 55 1003.5
20260506113253 74 2 2.6 9.6 0.00 0.00 0.00 54 1003.6
20260506112253 75 297 5.2 8.7 0.00 0.00 0.00 54 1003.2
20260506111754 74 336 0.9 8.7 0.00 0.00 0.00 56 1003.6
20260506111253 73 285 2.6 7.0 0.00 0.00 0.00 57 1003.4
20260506110253 73 259 1.7 11.3 0.00 0.00 0.00 58 1003.3
20260506105753 74 336 7.0 11.3 0.00 0.00 0.00 55 1003.7
20260506105253 74 38 5.2 9.6 0.00 0.00 0.00 55 1003.9
20260506104756 74 70 2.6 8.7 0.00 0.00 0.00 56 1003.5
20260506104253 75 341 2.6 9.6 0.00 0.00 0.00 55 1003.7
20260506103754 74 270 3.5 9.6 0.00 0.00 0.00 56 1003.7
20260506103254 72 279 2.6 7.8 0.00 0.00 0.00 59 1003.7
20260506102754 74 251 3.5 7.8 0.00 0.00 0.00 56 1003.9
20260506101755 74 354 5.2 7.0 0.00 0.00 0.00 57 1003.8
20260506101254 73 248 1.7 9.6 0.00 0.00 0.00 57 1003.7
20260506100804 71 308 7.0 11.3 0.00 0.00 0.00 59 1003.4
20260506100253 72 20 6.1 11.3 0.00 0.00 0.00 59 1003.7
20260506095755 71 285 3.5 9.6 0.00 0.00 0.00 59 1003.7
20260506094754 71 258 0.0 7.0 0.00 0.00 0.00 62 1003.4
20260506094253 71 330 2.6 7.8 0.00 0.00 0.00 61 1003.4
20260506093754 70 250 4.3 8.7 0.00 0.00 0.00 61 1003.3
20260506093253 70 287 4.3 8.7 0.00 0.00 0.00 61 1003.6
20260506091754 71 271 2.6 9.6 0.00 0.00 0.00 60 1003.4
20260506091253 71 349 0.9 9.6 0.00 0.00 0.00 61 1003.5
20260506090754 71 334 6.1 9.6 0.00 0.00 0.00 61 1003.7
20260506090252 71 214 0.9 7.8 0.00 0.00 0.00 62 1003.5
20260506085754 70 298 0.9 7.8 0.00 0.00 0.00 62 1003.3
20260506085254 71 323 3.5 7.8 0.00 0.00 0.00 61 1003.2
20260506084754 70 305 2.6 7.8 0.00 0.00 0.00 62 1003.5
20260506084253 70 7 5.2 7.8 0.00 0.00 0.00 63 1003.4
20260506083254 70 337 5.2 9.6 0.00 0.00 0.00 63 1003.0
20260506081754 69 275 2.6 7.8 0.00 0.00 0.00 64 1003.0
20260506081254 68 298 4.3 7.8 0.00 0.00 0.00 65 1003.2
20260506080756 68 311 2.6 7.0 0.00 0.00 0.00 65 1003.1
20260506080253 68 308 4.3 7.0 0.00 0.00 0.00 65 1003.2
20260506073253 67 321 4.3 7.0 0.00 0.00 0.00 66 1002.9
20260506072756 65 2 4.3 7.0 0.00 0.00 0.00 68 1003.1
20260506072255 65 264 1.7 8.7 0.00 0.00 0.00 68 1002.9
20260506071254 64 330 3.5 11.3 0.00 0.00 0.00 68 1002.9
20260506070254 64 339 2.6 7.8 0.00 0.00 0.00 68 1003.0
20260506062254 62 253 1.7 13.9 0.00 0.00 0.00 70 1002.9
20260506061754 62 333 3.5 13.9 0.00 0.00 0.00 70 1002.7
20260506061253 63 338 4.3 7.8 0.00 0.00 0.00 69 1002.7
20260506060755 62 324 5.2 7.8 0.00 0.00 0.00 70 1002.6
20260506060253 62 260 5.2 7.0 0.00 0.00 0.00 70 1002.7
20260506051252 59 259 0.0 2.6 0.00 0.00 0.00 72 1002.7
20260506050753 59 162 0.9 2.6 0.00 0.00 0.00 72 1002.5
20260506050253 59 156 0.9 1.7 0.00 0.00 0.00 71 1002.6
20260506044753 61 229 0.0 0.9 0.00 0.00 0.00 68 1002.5
20260506044253 61 227 0.0 0.9 0.00 0.00 0.00 69 1002.2
20260506043753 60 223 0.0 0.9 0.00 0.00 0.00 68 1002.3
20260506043252 59 225 0.0 0.9 0.00 0.00 0.00 69 1002.2
20260506042754 60 224 0.9 0.9 0.00 0.00 0.00 68 1002.2
20260506042253 61 234 0.0 0.0 0.00 0.00 0.00 67 1002.3
20260506041755 58 234 0.0 0.0 0.00 0.00 0.00 71 1002.1
20260506040252 55 260 0.0 0.9 0.00 0.00 0.00 75 1002.1
20260506035752 54 260 0.0 0.0 0.00 0.00 0.00 75 1002.5
20260506034753 54 251 0.0 0.0 0.00 0.00 0.00 75 1002.1
20260506034252 54 258 0.0 0.9 0.00 0.00 0.00 75 1002.0
20260506033755 54 260 0.0 0.9 0.00 0.00 0.00 75 1001.9
20260506033253 54 222 0.0 0.9 0.00 0.00 0.00 75 1002.0
20260506032755 55 203 0.0 0.9 0.00 0.00 0.00 74 1002.0
20260506032254 55 242 0.0 0.9 0.00 0.00 0.00 73 1002.0
20260506031754 55 256 0.0 1.7 0.00 0.00 0.00 73 1002.1
20260506031253 55 222 0.9 1.7 0.00 0.00 0.00 73 1001.8
20260506030254 54 225 0.0 0.9 0.00 0.00 0.00 73 1002.0
20260506025755 55 232 0.0 0.9 0.00 0.00 0.00 73 1001.9
20260506025253 55 225 0.0 0.9 0.00 0.00 0.00 72 1002.2
20260506024754 55 228 0.0 0.9 0.00 0.00 0.00 72 1002.0
20260506024254 54 233 0.0 0.9 0.00 0.00 0.00 72 1002.2
20260506023755 54 234 0.0 0.9 0.00 0.00 0.00 73 1002.1
20260506023254 54 264 0.0 0.9 0.00 0.00 0.00 72 1001.9
20260506022754 53 240 0.0 0.0 0.00 0.00 0.00 73 1002.2
20260506022253 54 239 0.0 0.0 0.00 0.00 0.00 73 1002.1
20260506021754 54 239 0.0 0.0 0.00 0.00 0.00 73 1002.3
20260506020754 54 239 0.0 0.0 0.00 0.00 0.00 73 1002.1
20260506020253 54 239 0.0 0.0 0.00 0.00 0.00 73 1002.0
20260506015754 54 240 0.0 0.0 0.00 0.00 0.00 72 1002.2
20260506015253 54 240 0.0 0.0 0.00 0.00 0.00 72 1002.5
20260506014755 54 240 0.0 0.0 0.00 0.00 0.00 72 1002.2
20260506014254 54 240 0.0 0.0 0.00 0.00 0.00 71 1002.1
20260506013755 55 240 0.0 0.0 0.00 0.00 0.00 71 1002.1
20260506012754 55 239 0.0 0.0 0.00 0.00 0.00 70 1001.9
20260506012252 56 239 0.0 0.9 0.00 0.00 0.00 69 1001.9
20260506011753 56 240 0.0 0.9 0.00 0.00 0.00 69 1001.9
20260506011252 56 239 0.0 0.9 0.00 0.00 0.00 69 1001.9
20260506010753 56 239 0.0 0.9 0.00 0.00 0.00 69 1001.9
20260506010252 56 239 0.0 0.0 0.00 0.00 0.00 69 1002.0
20260506005753 56 242 0.0 0.0 0.00 0.00 0.00 68 1001.9
20260506005254 56 242 0.0 0.0 0.00 0.00 0.00 68 1001.9
20260506004745 56 242 0.0 0.0 0.00 0.00 0.00 69 1002.0
20260506003746 57 242 0.0 0.0 0.00 0.00 0.00 68 1002.5
20260506003234 57 242 0.0 0.0 0.00 0.00 0.00 68 1002.1
20260506002733 57 242 0.0 0.0 0.00 0.00 0.00 67 1002.3
20260506002234 58 242 0.0 0.0 0.00 0.00 0.00 66 1002.5
20260506001731 58 242 0.0 0.0 0.00 0.00 0.00 65 1002.3
20260506000730 58 233 0.0 0.0 0.00 0.00 0.00 64 1002.3
20260506000230 59 233 0.0 0.9 0.00 0.00 0.00 64 1002.1
20260505235729 60 228 0.0 0.9 0.00 0.00 0.00 63 1002.5
20260505234728 60 242 0.0 1.7 0.00 0.00 0.00 61 1002.5
20260505233727 61 228 0.0 0.9 0.00 0.00 0.00 60 1002.3
20260505233230 61 210 0.0 0.9 0.00 0.00 0.00 60 1002.2
20260505232729 61 229 0.0 1.7 0.00 0.00 0.00 60 1002.3
20260505232229 62 233 0.0 1.7 0.00 0.00 0.00 60 1002.6
20260505231728 62 226 0.9 1.7 0.00 0.00 0.00 59 1002.6
20260505231229 62 28 0.9 1.7 0.00 0.00 0.00 59 1002.9
20260505230728 62 188 0.9 1.7 0.00 0.00 0.00 59 1002.7
20260505230237 62 220 0.0 1.7 0.00 0.00 0.00 59 1002.9
20260505225728 63 177 0.9 1.7 0.00 0.00 0.00 58 1002.8
20260505225229 63 152 0.9 2.6 0.00 0.00 0.00 57 1002.2
20260505224229 64 212 0.9 3.5 0.00 0.00 0.00 56 1002.7
20260505223728 64 320 0.9 3.5 0.00 0.00 0.00 56 1002.7
20260505223230 64 216 0.9 1.7 0.00 0.00 0.00 56 1002.7
20260505222729 64 46 0.9 2.6 0.00 0.00 0.00 56 1002.6
20260505221728 63 196 1.7 2.6 0.00 0.00 0.00 58 1002.9
20260505221229 63 186 1.7 2.6 0.00 0.00 0.00 60 1002.8
20260505220728 63 253 0.9 2.6 0.00 0.00 0.00 61 1002.9
20260505220229 62 172 1.7 2.6 0.00 0.00 0.00 62 1002.7
20260505215728 62 122 0.9 1.7 0.00 0.00 0.00 62 1002.8
20260505215230 62 241 0.0 1.7 0.00 0.00 0.00 62 1002.9
20260505214728 63 158 1.7 1.7 0.00 0.00 0.00 60 1003.0
20260505214229 64 142 0.9 1.7 0.00 0.00 0.00 59 1002.9
20260505213728 64 303 0.0 1.7 0.00 0.00 0.00 58 1003.0
20260505213229 64 323 0.9 2.6 0.00 0.00 0.00 58 1002.9
20260505211230 64 328 0.0 1.7 0.00 0.00 0.00 57 1003.1
20260505210729 64 347 0.0 1.7 0.00 0.00 0.00 58 1003.0
20260505210230 63 197 0.9 1.7 0.00 0.00 0.00 58 1003.2
20260505205728 63 204 0.0 1.7 0.00 0.00 0.00 58 1003.2
20260505205229 64 215 0.9 1.7 0.00 0.00 0.00 58 1003.0
20260505204728 64 241 0.0 0.9 0.00 0.00 0.00 57 1002.9
20260505204229 64 243 0.0 0.9 0.00 0.00 0.00 56 1003.0
20260505203727 64 278 0.0 0.9 0.00 0.00 0.00 56 1003.1
20260505203230 65 38 0.0 1.7 0.00 0.00 0.00 55 1003.1
20260505202728 65 156 0.9 1.7 0.00 0.00 0.00 55 1003.2
20260505202230 65 247 0.9 1.7 0.00 0.00 0.00 55 1003.1
20260505201728 65 224 0.0 1.7 0.00 0.00 0.00 55 1003.1
20260505201229 65 212 0.9 1.7 0.00 0.00 0.00 55 1003.1
20260505200728 65 178 0.9 1.7 0.00 0.00 0.00 54 1003.0
20260505200229 66 171 0.9 1.7 0.00 0.00 0.00 53 1003.1
20260505195727 65 224 0.0 1.7 0.00 0.00 0.00 53 1002.9
20260505194728 65 230 0.0 1.7 0.00 0.00 0.00 53 1002.9
20260505194230 65 224 0.9 1.7 0.00 0.00 0.00 54 1003.2
20260505193729 66 157 0.9 1.7 0.00 0.00 0.00 53 1002.8
20260505193230 67 214 0.0 0.9 0.00 0.00 0.00 52 1002.9
20260505192728 67 217 0.9 0.9 0.00 0.00 0.00 52 1003.1
20260505192229 67 208 0.0 0.9 0.00 0.00 0.00 51 1003.0
20260505191729 67 177 0.9 1.7 0.00 0.00 0.00 51 1003.0
20260505191230 67 177 0.9 1.7 0.00 0.00 0.00 51 1002.9
20260505190728 67 209 0.9 0.9 0.00 0.00 0.00 51 1003.0